SCP
0 0 0 0 0 0 0 0 0 0 0 0 0 0 0 0 0 0 0 1 2 4 5 5 5 6 6 5 5 5 4 4 4 4 4 5 6 5 5 4 4 3 2 2 2 1 1 2 2
0 0 0 0 0 0 0 0 0 0 0 0 0 0 0 0 0 0 1 1 1 3 4 4 4 5 5 6 6 5 5 5 5 4 4 5 6 6 5 5 4 3 3 2 2 2 2 2 2
0 0 0 0 0 0 0 0 0 0 0 0 0 0 0 0 0 0 1 1 1 2 2 3 3 3 4 5 6 6 5 5 5 4 4 4 5 5 5 5 4 4 3 3 2 2 2 2 2
0 0 0 0 0 0 0 0 0 0 0 0 0 0 0 0 0 0 1 2 2 1 1 2 2 2 3 4 5 5 5 4 4 4 4 4 4 4 5 5 4 4 4 3 3 3 3 2 2
0 0 0 0 0 0 0 0 0 0 0 0 0 0 0 0 0 1 2 2 2 2 1 2 2 2 2 3 4 4 4 4 4 4 4 4 3 3 4 4 4 4 4 3 3 3 3 2 2
0 0 0 0 0 0 0 0 0 0 0 0 0 0 0 0 0 0 1 2 2 2 2 2 2 2 2 2 3 3 4 4 4 4 4 4 3 3 3 3 3 4 3 3 3 3 3 2 2
0 0 0 0 0 0 0 0 0 0 0 0 0 0 0 0 0 0 1 2 2 2 2 2 2 2 1 1 2 3 3 4 4 4 4 4 3 3 3 3 3 3 3 3 3 3 3 2 2
0 0 0 0 0 0 0 0 0 0 0 0 0 0 0 0 0 0 0 1 2 2 2 2 2 2 1 1 1 2 3 4 5 5 4 4 4 3 3 2 3 3 3 3 3 3 2 2 1
0 0 0 0 0 0 0 0 0 0 0 0 0 0 0 0 0 0 0 1 1 2 2 2 2 2 1 1 1 1 1 3 4 5 4 4 4 3 3 2 2 2 3 3 3 3 2 1 1
0 0 0 0 0 0 0 0 0 0 0 0 0 0 0 0 0 0 1 1 1 1 1 1 1 1 1 1 1 1 1 2 3 4 4 4 4 4 3 2 2 2 2 3 3 3 2 1 1
0 0 0 0 0 0 0 0 0 0 0 0 0 0 0 0 0 0 0 1 1 1 1 1 1 1 1 1 1 1 1 1 2 3 4 4 5 4 3 2 2 1 1 2 3 3 3 2 1
0 0 0 0 0 0 0 0 0 0 0 0 0 0 0 0 0 0 0 0 1 1 1 1 1 1 1 1 1 1 1 1 1 2 3 3 4 4 3 2 2 1 1 2 2 3 3 2 1
0 0 0 0 0 0 0 0 0 0 0 0 0 0 0 0 0 0 0 0 1 1 1 1 1 1 1 1 1 1 1 1 1 1 1 2 3 3 3 2 2 1 2 2 2 3 3 3 2
0 0 0 0 0 0 0 0 0 0 0 0 0 0 0 0 0 0 0 0 1 1 1 1 1 1 1 1 1 1 1 1 1 1 1 1 2 3 2 2 1 1 1 1 1 2 3 3 3
0 0 0 0 0 0 0 0 0 0 0 0 0 0 0 0 0 0 0 0 1 1 1 1 1 1 1 1 1 1 0 0 0 1 1 1 1 2 2 1 1 1 1 1 1 1 2 3 3
0 0 0 0 0 0 0 0 0 0 0 0 0 0 0 0 0 0 0 0 0 1 1 1 1 1 1 1 1 1 1 0 0 0 0 1 1 1 1 1 1 1 1 1 1 1 2 2 2
0 0 0 0 0 0 0 0 0 0 0 0 0 0 0 0 0 0 0 0 0 1 1 1 1 1 1 1 1 1 1 0 0 0 0 0 1 1 1 1 1 1 1 1 1 1 1 2 2
0 0 0 0 0 0 0 0 0 0 0 0 0 0 0 0 0 0 0 0 0 0 1 1 1 1 1 1 1 1 0 0 0 0 0 0 1 1 1 1 1 1 0 1 1 1 1 1 1
0 0 0 0 0 0 0 0 0 0 0 0 0 0 0 0 0 0 0 0 0 0 1 1 1 1 1 1 1 1 1 0 0 0 0 0 0 1 1 1 1 0 0 0 1 1 1 1 1
0 0 0 0 0 0 0 0 0 0 0 0 0 0 0 0 0 0 0 0 0 0 1 0 0 1 1 1 1 1 1 0 0 0 0 0 0 0 1 1 0 0 0 0 1 1 1 1 1
0 0 0 0 0 0 0 0 0 0 0 0 0 0 0 0 0 0 0 0 0 0 0 0 0 0 1 1 1 1 1 1 0 0 0 0 0 0 0 0 0 0 0 0 0 1 1 1 1
0 0 0 0 0 0 0 0 0 0 0 0 0 0 0 0 0 0 0 0 0 0 0 1 0 0 0 0 1 1 1 1 0 0 0 0 0 0 0 0 0 0 0 0 0 0 0 1 1
0 0 0 0 0 0 0 0 0 0 0 0 0 0 0 0 0 0 0 0 0 0 0 1 1 1 0 0 0 1 1 1 1 0 0 0 0 0 0 0 0 0 0 0 0 0 0 0 0
0 0 0 0 0 0 0 0 0 0 0 0 0 0 0 0 0 0 0 0 0 0 0 1 1 1 1 0 0 0 1 1 1 1 0 0 0 0 0 0 0 0 0 0 1 0 0 0 0
0 0 0 0 0 0 0 0 0 0 0 0 0 0 0 0 0 0 0 0 0 0 0 0 1 1 1 0 0 0 0 1 1 1 1 1 0 0 0 0 0 0 0 0 0 1 0 0 0
0 0 0 0 0 0 0 0 0 0 0 0 0 0 0 0 0 0 0 0 0 0 0 0 1 1 1 0 0 0 0 0 1 1 1 1 1 0 0 0 0 0 0 0 0 0 0 0 0
0 0 0 0 0 0 0 0 0 0 0 0 0 0 0 0 0 0 0 0 0 0 0 0 0 0 1 0 0 0 0 0 0 1 1 1 1 0 0 0 0 0 0 0 0 0 0 0 0
0 0 0 0 0 0 0 0 0 0 0 0 0 0 0 0 0 0 0 0 0 0 0 0 0 0 0 0 0 0 0 0 0 1 1 1 1 0 0 0 0 0 0 0 0 0 0 0 0
0 0 0 0 0 0 0 0 0 0 0 0 0 0 0 0 0 0 0 0 0 0 0 0 0 0 0 0 0 0 0 0 0 0 1 1 1 0 0 0 0 0 0 0 0 0 0 0 0
0 0 0 0 0 0 0 0 0 0 0 0 0 0 0 0 0 0 0 0 0 0 0 0 0 0 0 0 0 0 0 0 0 0 1 1 1 0 0 0 0 0 0 0 0 0 0 0 0
Wind_Speed
9 5 2 4 6 4 1 3 1 1 1 1 3 5 6 4 3 4 0 1 3 3 2 2 4 6 6 6 7 6 6 7 7 7 7 7 7 8 8 8 7 8 8 9 10 10 10 10 10
4 3 4 5 5 2 3 2 1 1 2 2 4 5 6 4 3 4 1 2 4 3 3 3 5 5 6 6 6 6 6 6 6 6 6 6 7 7 8 8 7 7 8 9 9 9 10 10 9
3 2 4 4 3 4 4 2 3 2 2 3 3 4 4 3 2 1 0 3 4 4 3 3 6 6 6 6 6 6 6 6 6 6 6 6 7 7 7 7 7 7 8 8 9 9 9 9 9
3 4 5 4 2 3 3 3 2 2 3 4 3 4 3 2 1 1 2 4 5 4 3 4 6 6 6 6 6 6 6 6 6 6 6 6 6 6 6 6 6 6 7 8 8 8 8 8 8
4 4 3 1 3 2 1 1 2 2 1 2 3 4 2 3 3 4 3 4 5 4 3 3 6 6 6 6 6 6 6 6 6 5 5 6 6 6 6 6 6 6 7 7 7 7 7 8 8
4 4 3 3 3 2 1 1 2 2 1 1 3 3 1 1 4 3 3 4 4 4 3 3 6 6 6 5 5 5 6 6 6 6 5 5 6 6 5 6 6 6 6 6 7 7 7 7 7
4 4 3 4 3 2 2 0 2 2 2 0 2 4 1 1 1 2 3 4 4 4 4 3 3 4 5 6 5 5 5 5 6 5 5 5 5 5 5 5 5 6 6 6 6 6 6 6 6
4 4 1 2 3 3 1 1 1 1 1 1 2 5 3 3 1 3 4 4 4 4 4 3 3 3 3 3 4 5 5 5 5 6 6 6 5 5 5 5 5 5 6 6 6 7 7 6 6
3 4 2 3 4 2 0 1 2 1 2 2 2 2 1 3 2 4 4 4 4 4 3 3 2 3 2 2 3 4 4 5 5 5 6 5 3 3 3 4 5 5 6 6 6 6 6 6 6
4 3 4 3 2 2 1 1 1 2 2 1 2 2 3 4 3 4 3 3 2 2 2 2 2 2 2 2 2 2 3 3 3 3 3 3 3 3 3 4 4 4 4 5 5 6 5 4 2
3 4 3 2 0 2 1 0 0 3 1 3 3 2 2 3 3 3 2 2 1 1 1 2 1 2 2 2 2 2 2 2 2 3 3 2 2 2 3 2 2 2 3 2 3 3 2 2 1
2 0 1 1 1 1 1 1 0 1 4 2 3 5 4 3 3 3 3 2 1 1 1 1 1 2 2 2 1 1 1 2 2 2 2 2 1 2 2 1 1 1 1 1 2 1 2 2 2
1 1 1 1 2 1 2 0 1 3 3 1 2 3 4 4 3 3 3 2 2 1 0 0 1 2 2 2 1 2 1 1 1 1 1 1 1 1 1 1 1 1 1 1 1 1 2 2 2
1 1 1 1 2 1 1 2 1 5 3 1 1 2 3 4 3 2 1 1 1 1 1 0 1 1 2 2 1 1 1 1 1 1 1 1 1 1 1 1 1 1 1 1 1 1 2 2 2
1 1 3 3 1 1 1 3 5 5 2 2 2 2 3 2 2 2 2 2 2 2 1 1 1 1 2 1 1 1 1 1 0 0 1 1 1 1 1 1 0 0 1 1 1 2 2 2 2
2 1 2 3 1 1 1 6 6 3 2 3 4 2 2 2 1 1 1 1 0 1 1 1 1 1 1 1 1 1 1 1 0 0 0 1 1 1 1 1 1 0 1 1 1 1 2 2 1
2 1 3 4 1 0 2 7 6 3 3 4 3 2 2 1 1 0 0 1 1 0 1 1 1 1 1 1 1 1 0 0 0 0 0 0 0 0 1 1 1 1 1 1 1 1 1 1 1
3 3 4 5 3 1 3 8 8 5 4 4 3 3 2 2 3 1 0 1 0 0 1 1 1 1 1 1 1 1 1 0 0 0 0 1 1 0 1 1 1 1 1 1 1 2 1 1 1
2 3 4 5 2 2 6 9 10 6 4 4 4 3 3 3 2 0 1 1 2 2 1 0 1 1 1 1 1 0 1 1 1 1 1 0 1 1 1 1 1 1 1 2 2 2 2 1 2
1 2 4 5 3 3 5 9 8 4 5 5 5 4 3 2 1 1 1 1 1 1 1 1 0 1 2 1 1 1 1 1 1 1 1 1 1 1 1 1 1 1 1 2 2 2 2 1 1
2 3 4 5 5 3 3 7 4 2 1 1 2 2 2 2 2 1 0 0 1 1 1 1 1 1 1 0 0 1 1 1 1 1 1 1 1 1 1 1 2 2 2 2 2 3 3 3 2
4 3 3 3 2 4 1 6 6 3 2 2 3 2 2 2 2 2 1 1 1 1 1 1 1 0 0 0 1 2 2 2 3 2 2 2 2 2 1 1 1 2 2 3 3 3 2 4 3
3 3 2 2 2 3 3 4 8 2 4 5 4 3 2 2 2 2 2 2 1 1 0 1 1 1 1 1 1 2 2 2 2 2 2 2 2 2 2 2 2 2 2 3 3 3 3 3 3
1 3 2 2 2 4 5 5 8 4 6 4 3 3 3 2 2 2 2 1 0 0 0 1 1 1 1 1 2 2 3 2 2 2 3 3 2 2 2 2 2 2 2 3 3 4 4 4 3
2 3 4 5 3 7 3 5 10 5 4 4 4 4 4 3 2 1 1 1 1 1 1 1 1 2 2 2 2 3 4 4 4 4 4 3 2 2 3 3 3 3 2 3 3 3 4 3 4
2 4 5 4 5 6 4 8 8 4 2 2 3 3 2 2 2 3 3 3 2 2 2 1 2 3 2 2 3 3 4 4 3 4 4 4 3 4 3 3 3 3 3 2 3 3 3 3 3
2 3 3 3 2 4 7 7 7 3 1 1 1 1 2 3 3 3 3 3 3 3 3 3 2 3 3 3 3 3 3 4 4 4 4 3 3 3 3 3 3 3 3 3 3 3 4 3 4
2 3 3 3 3 6 7 6 6 4 4 3 3 3 4 3 3 3 3 3 3 3 3 2 2 3 3 3 3 3 3 4 4 3 4 3 3 3 3 3 3 3 3 2 3 3 3 3 3
2 2 3 3 3 4 5 8 5 5 5 5 5 4 4 4 4 4 3 3 2 2 1 2 2 2 3 3 3 3 3 3 3 3 4 4 3 3 3 3 3 3 3 3 3 3 3 4 3
4 5 6 5 5 5 5 10 3 2 3 3 4 4 3 3 3 3 3 2 2 2 2 2 3 3 3 3 3 3 3 3 3 4 4 3 3 3 3 3 3 3 3 3 3 4 3 4 4
Wind_Direction
336 335 40 53 58 56 229 257 202 99 71 52 59 87 96 86 104 134 192 53 81 93 75 74 87 99 99 103 107 106 107 107 105 102 100 103 103 100 95 90 93 97 99 99 97 95 91 87 83
334 352 49 59 93 141 252 253 166 145 162 106 46 58 74 68 56 101 61 43 85 91 77 71 68 83 96 94 95 101 107 106 104 103 105 109 108 103 100 94 95 99 102 102 101 98 94 88 83
332 52 74 77 124 183 199 201 156 112 61 70 58 48 75 86 72 110 70 96 84 82 71 65 73 74 82 87 88 87 94 98 96 98 101 107 109 107 102 98 95 102 102 102 102 100 96 91 86
47 47 57 81 190 226 198 211 170 108 43 44 88 67 64 39 75 124 99 104 92 73 64 70 71 76 79 81 86 85 84 87 92 95 96 104 105 105 105 103 99 108 105 103 103 101 99 95 91
63 79 76 107 219 237 251 259 140 118 99 45 87 98 79 12 46 79 88 99 100 82 64 76 71 68 74 77 79 82 84 80 82 87 88 94 98 99 101 103 104 107 107 105 103 103 104 99 96
61 75 114 202 216 232 279 289 110 95 102 73 87 107 122 40 60 67 75 83 96 92 69 70 69 66 62 66 71 79 82 80 78 77 80 88 95 95 94 98 99 99 105 107 104 104 104 99 98
104 105 168 191 198 239 251 309 116 136 122 216 123 119 141 333 21 69 77 81 82 82 71 61 61 61 58 54 58 72 77 76 76 73 75 80 83 89 88 89 95 99 96 96 99 100 103 99 94
125 109 139 182 189 232 269 61 58 92 139 34 96 140 189 240 254 83 78 76 75 67 62 56 46 47 49 48 54 56 67 69 69 68 65 71 71 78 84 83 88 98 101 96 94 92 93 91 83
91 88 197 210 192 212 197 77 2 48 85 41 58 126 191 148 116 82 68 56 56 55 48 46 42 36 31 39 51 55 57 61 66 62 57 62 58 59 74 77 81 91 97 99 97 93 88 84 76
86 148 219 231 195 173 139 124 175 67 57 41 35 45 77 110 110 99 86 82 70 48 31 41 45 36 32 38 43 41 45 45 51 51 49 52 55 52 58 62 71 77 88 98 102 96 89 76 66
111 170 208 258 211 144 138 140 225 143 228 213 187 174 127 117 120 128 133 128 154 146 66 33 44 53 51 45 54 46 43 41 40 47 48 54 54 53 52 51 50 54 64 75 90 89 75 77 76
101 314 216 257 343 68 168 175 359 221 225 197 173 165 154 149 163 170 163 154 132 99 94 47 52 63 56 59 63 60 55 49 40 27 42 68 67 56 57 59 46 47 47 64 77 92 83 76 71
123 218 341 49 46 63 93 168 226 257 242 190 145 139 162 172 182 185 172 164 144 143 120 80 81 76 61 64 61 61 60 63 48 42 35 60 99 92 71 66 60 54 53 61 77 93 89 81 67
151 143 294 317 334 325 190 268 247 253 232 175 150 175 191 194 197 188 168 176 176 173 195 159 109 94 81 74 65 81 54 42 66 56 32 48 88 117 107 79 70 64 67 73 94 110 112 105 90
98 47 332 295 274 268 61 301 238 239 200 202 217 205 199 202 184 185 192 183 197 196 190 170 146 102 97 92 71 67 61 51 59 29 24 31 59 114 132 129 116 84 86 86 87 70 86 87 78
31 40 293 281 247 263 162 259 257 239 180 229 237 235 226 218 193 195 177 156 165 158 169 184 113 110 119 112 101 80 61 47 2 347 359 15 41 107 132 141 158 164 129 119 117 100 90 81 79
28 268 253 276 255 183 194 251 265 265 211 237 241 228 213 241 334 314 183 178 161 176 186 178 148 139 143 129 113 108 81 55 352 350 359 335 11 113 156 156 171 158 145 138 130 107 117 109 80
236 242 250 255 273 223 238 257 269 255 224 234 232 220 209 215 242 252 283 41 85 146 156 169 160 132 127 113 82 57 43 7 355 313 307 351 322 286 175 139 130 126 137 142 131 126 103 128 116
212 227 259 266 282 250 246 263 273 263 227 229 234 225 217 228 252 65 67 49 42 32 30 60 147 155 130 123 144 210 232 269 281 269 289 301 328 293 177 126 158 142 156 180 158 139 130 119 102
250 257 272 289 309 280 273 275 269 251 221 212 210 217 219 231 357 12 34 33 39 30 19 15 356 194 188 195 201 219 232 240 253 268 266 275 283 297 218 163 186 189 174 170 162 139 134 149 137
277 236 253 275 315 312 316 297 263 267 214 193 192 206 214 197 208 231 295 348 13 4 327 326 311 278 243 243 80 43 34 357 295 285 269 277 256 234 277 201 184 200 185 186 182 171 156 169 195
257 264 261 268 305 287 253 281 267 246 264 245 242 239 233 230 203 202 210 269 321 309 325 331 320 315 299 200 193 189 206 227 245 251 252 260 244 232 230 236 209 195 193 190 191 187 185 169 184
245 280 270 254 229 290 256 237 276 262 253 249 239 240 244 228 195 194 204 215 240 259 313 317 340 321 281 236 231 223 236 243 267 267 240 238 239 232 221 222 226 215 208 199 201 198 194 188 189
268 4 10 39 75 272 236 209 271 231 223 239 236 235 236 223 199 203 208 194 223 296 336 323 326 306 288 253 249 242 244 250 261 266 248 242 243 236 225 220 216 222 220 208 207 206 202 198 198
45 69 19 355 339 255 251 223 250 238 223 211 218 227 227 219 208 221 229 217 233 243 258 271 283 289 289 273 261 256 249 238 236 243 239 246 245 244 233 227 220 223 230 229 212 208 206 199 197
220 157 166 215 245 277 279 238 247 248 238 218 210 213 221 227 223 225 223 215 223 229 233 241 260 278 280 274 271 268 259 243 240 244 244 238 242 241 238 230 227 226 224 231 224 215 213 208 207
177 204 196 172 278 280 265 275 290 243 275 271 244 249 251 239 234 233 229 220 224 225 227 234 255 279 280 277 285 280 273 258 247 247 241 241 252 253 240 236 232 227 221 224 223 218 214 211 215
179 168 122 148 204 261 276 260 246 240 247 253 259 257 260 262 262 254 240 232 230 226 231 237 245 260 274 277 275 281 278 270 255 243 239 241 245 248 235 233 235 231 224 222 219 231 216 209 215
190 186 174 175 193 208 267 265 239 232 222 225 241 252 253 257 263 260 259 249 233 235 231 239 250 273 283 282 279 282 279 280 265 246 243 243 245 243 234 227 233 233 226 218 218 231 214 209 211
197 195 167 180 235 224 250 269 277 238 249 244 257 271 279 274 274 271 273 280 273 251 240 241 250 258 265 271 276 278 282 282 268 255 248 242 243 245 239 233 229 233 230 221 217 225 222 214 210